Regional Weather Roundup
Issued by NWS Sioux Falls, SD

Home | Current Version | Previous Version | Text Only | Print | Product List | Glossary On
Versions: 1 2 3 4 5 6 7 8 9 10 11 12 13 14 15 16 17 18 19 20 21 22 23 24 25 26 27 28 29 30 31 32 33 34 35 36 37 38 39 40 41 42 43 44 45 46 47 48 49 50
000
ASUS43 KFSD 101510
RWRFSD

WEATHER ROUNDUP FOR SE SOUTH DAKOTA/SW MINNESOTA/NW IOWA
NATIONAL WEATHER SERVICE SIOUX FALLS SD
900 AM CST WED FEB 10 2016

NOTE: "FAIR" INDICATES FEW OR NO CLOUDS BELOW 12,000 FEET WITH NO
SIGNIFICANT WEATHER AND OR OBSTRUCTIONS TO VISIBILITY.


SDZ038>040-050-052>070-101600-
SOUTHEAST SOUTH DAKOTA

CITY           SKY/WX    TMP DP  RH WIND       PRES   REMARKS
BROOKINGS      LGT SNOW  12   9  87 E12       29.96F FOG     WCI  -2
CHAMBERLAIN    CLOUDY    24  22  91 SE9       29.87F WCI  15
HURON          CLOUDY    22  17  81 SE10      29.92F WCI  11
MADISON        CLOUDY    14  14 100 E12       29.95S WCI   0
MITCHELL       CLOUDY    23  19  85 SE12      29.94S WCI  12
SIOUX FALLS    FLURRIES  17  14  88 E10       29.97S WCI   5
WINNER         FAIR      34  28  79 W3        29.86F
YANKTON        CLOUDY    21  18  86 E12       29.94F WCI   9
$$

MNZ071-072-080-081-089-090-097-098-101600-
SOUTHWEST MINNESOTA

CITY           SKY/WX    TMP DP  RH WIND       PRES   REMARKS
FAIRMONT       CLOUDY     7   0  72 E6        30.06S WCI  -3
JACKSON        LGT SNOW  10   3  72 E8        30.04S VSB 1   WCI  -1
LUVERNE        LGT SNOW  18  14  86 E9        30.01R WCI   6
MARSHALL       LGT SNOW   8   4  83 SE10      30.06S FOG     WCI  -6
MONTEVIDEO     LGT SNOW   9   3  78 SE8       30.10S WCI  -4
PIPESTONE      LGT SNOW  16   7  67 SE10      29.97S WCI   3
REDWOOD FALLS  LGT SNOW   7   3  84 E6        30.10S FOG     WCI  -3
TRACY          LGT SNOW   9   6  86 E7        30.05S WCI  -2
WINDOM         LGT SNOW   7   3  85 E5        30.04S WCI  -2
WORTHINGTON    CLOUDY     9   5  85 E10       30.02S WCI  -6
$$

IAZ001>003-012>014-020>022-031-032-NEZ013-014-SDZ071-101600-
NORTHWEST IOWA

CITY           SKY/WX    TMP DP  RH WIND       PRES   REMARKS
CHEROKEE       LGT SNOW  18  17  93 SE7       30.02R WCI   9
DENISON        LGT SNOW  21  18  86 SE10G17   30.00F WCI  10
ESTHERVILLE    LGT SNOW   8   5  87 E7        30.05S VSB 1   WCI  -3
LE MARS        CLOUDY    21  21 100 E10G18    29.99F FOG     WCI  10
ORANGE CITY    LGT SNOW  19  19 100 E8        29.98F WCI   9
SHELDON        LGT SNOW  16  14  93 E15       29.98F WCI   1
SIOUX CITY     CLOUDY    25  17  72 SE15      29.97F WCI  13
SPENCER        LGT SNOW  11   6  81 E12       30.04R WCI  -3
STORM LAKE     LGT SNOW  14  14 100 SE14      30.02F VSB 1   WCI  -1
$$

ABBREVIATIONS USED IN REMARKS
   TC - TEMPERATURE IN CELSIUS
  WCI - WIND CHILL INDEX
   HX - HEAT INDEX
  VSB - VISIBILITY





USA.gov is the U.S. government's official web portal to all federal, state and local government web resources and services.